Погода в Тенби

Великобритания     51°40′43″N   4°42′44″W
В апреле 2022 года жителям России запретили посещать сайт meteo.paraplan.net по решению Генеральной прокуратуры. Аудитория сайта уменьшилась в 10 раз. Владельцы сайта не видят смысла в поддержке погодного сервера в таких условиях. Сайт будет закрыт в октябре.
темп.,
°C
ветер,
м/с
пор.,
м/с
влажн.,
%
обл.,
%
осадки,
мм/ч
давл.,
гПа
погр.,
м
30 сентября, пт
пт3001:00+10з118891 0.0 101036
04:00+11юз249284 0.0 1009102
07:00+13юз61084100 0.0 1007531
10:00+13юз101389100 0.5 1005885
13:00+14ююз142095100 5.9 10011118
16:00+16зюз121896100 7.3 9981210
19:00+15з71388100 8.0 999688
22:00+14з81385100 0.1 1001725
1 октября, сб
сб101:00+13з81386100 0.3 1002701
04:00+13з7128499 0.0 1003608
07:00+12зсз7128592 0.1 1006549
10:00+14з7107429 0.0 1008944
13:00+16зюз8116932 0.1 10091203
16:00+15з9128179 0.4 10101054
19:00+14з81387100 0.8 1012635
22:00+13з7118925 0.1 1014503
2 октября, вс
вс201:00+12з489381 0.1 1016254
04:00+13з3592100 0.0 1016159
07:00+13зсз1195100 2.4 101747
10:00+13вюв4697100 3.9 1016381
13:00+15ю31198100 12.8 1014781
16:00+12ссв81293100 4.8 1015374
19:00+12с713890 4.8 1018420
22:00+11с4109177 0.0 1021235
3 октября, пн
пн301:00+10ссв2390100 0.0 102271
04:00+9св228686 0.0 102252
07:00+9в238584 0.0 102268
10:00+13ююв3482100 0.0 1023429
13:00+14ююв5677100 0.0 1022501
16:00+15ююв568254 0.0 1020459
19:00+13ю4590100 0.0 1020182
22:00+13ююз3491100 0.0 1019159
4 октября, вт
вт401:00+13ююз589362 0.0 1017292
04:00+14ю6893100 0.0 1015370
07:00+14ю8118997 0.0 1013575
10:00+16ю8148998 0.0 1012733
13:00+17ююз91486100 0.1 1011839
16:00+16ююз81395100 0.3 1009660
19:00+16зюз61197100 0.6 1010512
22:00+13з489091 0.1 1012299